Wetbulb
30.69 31.91 31.86 29.95 30.10 31.28 29.55 31.26 28.21 32.40 33.16 36.29 38.80 39.71 40.46 41.44 42.30 43.04 44.47 46.49 50.35 52.22 53.58 53.36 51.79 51.16 49.71 48.20 49.27 52.89 56.46 57.43 58.19 59.19 60.47 60.75 60.96 59.16 59.33 59.43 58.63 58.40 58.72 58.33
27.56 31.14 31.41 29.16 31.33 32.04 32.51 32.94 33.12 33.63 33.26 39.80 40.59 40.49 40.11 41.10 41.86 43.01 45.87 49.06 51.09 51.36 51.12 49.97 49.24 47.46 45.98 47.04 47.65 48.68 55.94 56.38 58.47 59.07 59.31 59.93 60.13 58.80 58.38 57.81 57.48 57.11 57.13 54.04
23.15 29.25 28.99 24.43 29.76 31.11 32.45 34.35 33.87 30.25 35.65 39.16 38.17 38.94 40.52 41.57 42.67 45.58 47.99 48.91 48.98 48.88 48.51 48.63 48.85 46.53 44.31 45.31 47.04 47.89 53.06 56.61 57.95 58.87 58.71 59.54 58.96 58.25 56.91 55.06 52.33 47.90 46.38 45.16
23.70 26.41 16.71 29.98 35.60 34.46 32.25 33.83 35.64 35.72 36.90 38.34 39.50 41.92 44.33 45.78 45.17 46.87 47.05 46.84 47.19 47.16 46.73 47.31 47.38 47.25 44.13 44.30 45.84 47.83 49.94 55.98 57.28 57.89 57.66 58.81 57.77 56.21 51.18 48.90 46.17 42.53 39.89 39.82
22.09 22.90 27.22 30.02 32.98 32.45 31.49 31.51 36.69 36.35 38.69 40.24 42.35 44.10 45.03 46.97 46.97 46.01 45.56 45.58 45.89 45.96 45.00 45.02 43.71 42.57 42.34 43.84 44.06 45.04 49.15 55.11 56.14 56.99 56.55 56.96 52.75 49.28 45.38 41.90 40.18 38.79 37.86 37.07
25.50 19.21 16.49 28.57 34.75 38.35 37.97 28.21 39.59 39.41 38.57 36.69 38.12 37.06 41.68 43.60 43.80 43.16 42.84 42.97 42.62 42.88 42.74 41.17 39.16 39.42 40.76 39.77 39.35 38.90 41.01 50.07 55.56 55.78 55.44 51.13 46.22 42.46 40.98 38.34 35.95 35.85 34.66 35.12
24.03 23.37 26.92 34.50 37.43 39.52 25.51 30.16 40.12 38.56 35.95 33.23 36.86 38.76 40.35 40.85 39.63 39.51 39.77 40.20 40.05 40.18 38.26 36.64 36.19 36.51 36.73 36.57 36.11 37.39 39.19 41.05 54.06 54.14 50.17 45.46 41.55 39.11 37.20 34.90 33.82 33.02 32.65 33.49
27.26 24.26 20.35 38.01 36.79 30.96 37.30 41.47 38.68 37.72 38.70 40.20 41.65 40.56 39.50 39.36 38.15 37.43 37.40 37.62 37.40 36.37 35.18 34.74 33.79 33.91 33.28 32.29 34.04 35.97 37.57 37.41 45.37 45.79 42.71 40.38 37.77 36.36 35.36 33.83 31.85 30.98 30.26 29.87
29.91 29.54 37.99 38.81 37.76 41.38 41.56 39.98 39.11 38.90 39.35 39.60 38.56 38.08 37.71 36.37 35.37 35.62 35.28 35.25 35.70 34.36 33.21 32.53 31.75 31.29 30.64 31.60 32.41 34.99 34.72 34.55 33.74 37.71 38.37 37.72 35.81 34.36 33.62 33.28 31.60 29.82 28.71 27.46
30.40 32.58 32.82 34.62 35.43 37.84 39.22 37.01 36.61 37.25 37.88 37.90 35.67 35.56 34.70 33.35 32.68 32.70 33.25 33.44 34.30 33.86 32.18 29.84 29.47 29.41 29.79 31.22 31.67 32.30 32.25 31.96 33.04 31.95 32.31 33.29 33.61 33.58 32.98 31.96 30.64 28.94 27.71 26.64
31.32 32.22 33.42 34.90 34.74 33.35 35.30 35.70 35.53 36.85 36.85 35.70 35.71 34.19 32.89 30.82 30.04 30.85 31.50 31.89 32.70 31.58 31.28 29.32 27.98 27.70 29.05 30.12 31.32 29.76 30.78 31.23 31.37 31.62 29.55 29.30 30.73 30.60 29.77 30.35 29.67 27.47 26.30 25.47
27.77 31.24 31.41 32.87 33.23 35.38 34.56 34.61 35.11 35.84 35.43 35.06 34.61 33.07 32.85 30.94 30.21 29.47 28.98 29.57 29.45 29.53 29.70 29.67 26.50 25.93 27.34 29.32 30.16 29.19 28.44 28.65 28.91 29.76 29.51 28.54 27.45 26.84 29.87 29.19 29.22 28.87 28.02 25.84
30.27 33.71 35.24 34.64 36.67 35.30 35.14 34.48 34.86 34.66 33.85 32.32 32.48 31.64 30.98 29.31 27.82 27.38 27.27 26.54 26.51 26.73 26.85 27.57 26.89 24.63 25.41 27.52 28.63 28.56 27.88 28.10 27.88 27.56 27.55 27.34 26.30 25.42 24.33 26.88 28.47 27.81 27.54 27.10
33.03 33.18 31.85 32.00 31.15 34.26 34.27 34.71 34.93 33.55 32.34 30.61 29.77 29.34 28.46 27.81 27.19 25.83 24.94 24.90 25.46 25.07 24.93 24.92 24.89 24.77 25.44 25.48 25.76 26.67 26.64 26.90 26.52 26.69 26.16 26.16 25.41 24.91 24.77 23.52 23.13 23.97 27.09 26.60
31.43 32.50 31.24 32.29 32.72 32.39 33.89 34.24 33.94 32.20 30.41 29.31 28.84 27.27 26.65 25.06 24.63 23.97 24.24 25.22 25.85 24.38 23.30 23.61 23.61 24.34 26.61 25.51 24.19 23.42 24.02 24.17 24.17 24.35 24.51 24.79 24.77 24.03 23.79 23.33 22.41 22.63 22.86 23.58
30.68 30.79 30.89 29.67 29.09 29.60 30.47 30.66 30.01 30.01 30.30 28.92 27.55 26.57 25.80 25.24 25.11 24.32 24.11 23.89 23.64 22.68 23.24 22.98 22.99 24.64 26.33 26.26 25.31 23.69 22.55 22.51 22.34 21.71 21.32 20.79 20.71 20.82 21.05 21.94 22.04 21.62 19.96 19.23
26.72 25.91 26.60 27.13 27.03 27.02 27.66 28.34 28.27 27.85 28.18 27.38 26.26 26.07 25.72 24.54 24.35 23.17 23.37 24.12 24.07 23.95 24.16 23.68 23.28 24.80 25.56 25.65 25.57 25.51 24.71 23.97 23.12 22.04 20.85 20.39 20.09 19.43 19.74 19.88 19.23 18.75 18.89 20.13
26.81 26.75 26.58 26.58 25.45 25.59 26.61 27.31 27.35 26.68 25.35 24.92 23.80 23.33 22.69 22.62 21.94 22.08 22.95 24.16 23.47 22.40 23.72 24.43 24.76 24.66 24.86 25.53 25.82 25.62 24.81 24.11 23.81 22.66 22.53 21.07 20.08 20.30 19.47 17.96 17.00 15.57 15.37 16.36
25.22 24.50 24.78 24.85 24.29 24.20 24.88 24.57 24.19 24.59 23.82 23.08 22.35 21.60 21.79 21.76 22.57 22.58 23.48 23.53 23.53 22.84 22.26 24.38 24.32 24.60 24.30 25.05 25.43 24.83 23.49 22.54 21.80 21.28 21.06 20.19 19.85 19.31 18.38 17.35 16.08 15.53 15.62 16.00
23.75 23.80 23.13 22.68 22.37 20.61 20.13 20.85 21.37 22.56 22.15 22.51 21.35 21.14 20.97 20.58 21.16 21.26 21.92 20.50 21.01 22.19 23.41 23.74 24.09 23.73 23.58 23.63 24.27 24.37 23.69 22.85 21.37 21.28 20.27 19.26 18.74 17.07 16.51 15.38 15.68 15.62 15.43 15.16
20.23 20.56 18.96 18.11 18.24 17.89 16.62 17.92 19.38 19.09 19.78 19.70 20.74 18.85 19.26 20.21 20.21 21.83 23.29 22.38 21.21 22.14 22.83 22.48 23.38 23.56 23.25 23.44 23.22 23.27 22.72 21.93 21.05 20.35 18.81 16.97 16.30 15.69 15.51 15.45 14.94 14.32 14.02 13.79
19.01 16.81 15.62 14.96 15.37 16.16 15.78 17.05 17.94 17.43 17.96 18.11 17.79 18.24 18.92 19.89 19.50 19.36 18.89 21.23 21.88 21.10 22.46 22.16 20.99 19.93 21.29 22.70 23.82 23.70 22.65 21.82 20.71 19.60 18.18 17.09 16.55 15.94 15.44 15.10 14.32 14.32 14.45 14.28
19.25 18.28 17.96 14.45 14.37 15.96 15.55 15.52 15.75 16.46 16.33 17.30 17.81 19.44 20.40 21.06 21.79 21.91 20.78 20.48 21.05 20.11 20.92 19.57 16.86 17.55 19.69 22.96 22.82 22.13 21.04 20.22 19.36 18.63 18.19 17.72 17.13 16.27 15.35 14.67 14.35 14.37 13.97 13.36
18.83 18.43 17.61 16.95 15.70 16.57 15.79 16.78 16.50 17.18 16.21 17.72 17.32 17.63 20.61 21.23 20.07 20.50 19.30 17.35 17.39 18.71 18.63 18.23 17.02 17.15 19.13 21.00 20.43 20.01 19.84 19.36 18.83 18.39 17.43 16.14 16.76 15.58 14.99 14.35 13.93 14.01 12.31 12.26
18.14 17.99 17.39 16.88 18.16 18.55 16.99 17.48 17.04 17.14 16.73 17.99 18.06 19.18 19.24 20.09 20.35 19.00 19.10 18.15 17.01 18.49 17.54 14.65 15.76 17.09 19.96 19.68 19.08 18.53 18.53 18.48 17.92 17.51 16.94 16.47 15.45 14.57 14.37 13.57 13.08 13.25 12.23 11.95
20.33 20.53 19.76 16.86 17.10 18.08 18.30 18.20 17.33 17.87 18.04 18.41 18.34 19.12 19.29 19.07 18.69 18.43 17.84 16.90 17.67 17.02 18.13 18.17 18.09 18.23 18.07 17.72 17.27 16.48 16.40 16.07 16.44 15.90 15.39 15.45 14.89 14.04 13.06 12.06 11.70 11.93 11.66 11.31
20.44 17.25 19.37 18.98 18.48 17.86 17.31 16.63 17.01 16.72 17.43 18.25 16.65 18.13 18.21 18.22 17.63 17.43 17.07 17.83 17.41 17.09 17.41 17.46 17.09 16.62 16.72 16.52 15.89 15.67 15.28 15.14 14.35 14.60 14.43 14.13 13.90 12.98 12.06 12.02 11.88 10.89 9.36 8.15
MSLP
1008.99 1008.43 1008.22 1008.23 1007.93 1007.34 1006.75 1005.77 1004.61 1003.15 1002.20 1001.67 1001.46 1001.60 1001.91 1002.21 1001.96 1001.77 1001.46 1001.18 1001.14 1001.33 1001.83 1002.33 1002.72 1002.55 1002.45 1002.41 1002.37 1001.87 1000.95 1000.97 1000.92 1001.00 1001.37 1001.79 1002.33 1002.92 1003.51 1004.12 1004.83 1005.20 1005.43 1005.71
1009.26 1008.78 1008.25 1007.57 1007.18 1006.54 1005.73 1005.16 1004.39 1003.47 1002.64 1001.90 1001.89 1002.04 1002.25 1002.30 1001.94 1001.72 1001.40 1001.44 1001.73 1002.03 1002.53 1002.91 1003.24 1003.15 1002.95 1002.39 1002.29 1002.19 1000.79 1000.72 1000.58 1000.74 1001.17 1001.61 1002.21 1002.92 1003.65 1004.23 1004.81 1005.26 1005.59 1006.10
1009.29 1008.61 1007.93 1007.16 1006.05 1005.68 1005.04 1004.54 1004.31 1003.43 1002.55 1002.16 1002.39 1002.41 1002.35 1002.35 1002.15 1001.91 1002.01 1002.68 1002.80 1003.11 1003.29 1003.47 1003.55 1003.46 1003.47 1002.66 1002.84 1002.21 1001.06 1000.33 1000.21 1000.43 1000.75 1001.47 1002.11 1002.98 1003.81 1004.54 1005.21 1005.92 1006.47 1007.01
1009.99 1009.10 1007.80 1006.29 1005.71 1005.81 1005.37 1004.82 1004.30 1003.93 1003.56 1003.35 1003.09 1002.93 1002.86 1002.57 1002.28 1002.62 1003.50 1003.63 1003.72 1003.96 1004.08 1004.04 1003.97 1003.62 1003.73 1002.93 1002.68 1001.96 1001.14 1000.08 999.99 1000.14 1000.69 1001.39 1002.13 1003.14 1004.17 1005.03 1005.93 1006.76 1007.51 1008.11
1010.19 1008.78 1007.47 1006.50 1005.68 1005.51 1005.09 1004.56 1004.49 1004.31 1004.60 1004.47 1004.55 1004.09 1002.44 1002.87 1003.82 1004.23 1004.49 1004.58 1004.59 1004.75 1004.88 1004.75 1004.79 1004.56 1004.30 1003.08 1002.65 1001.92 1000.97 999.86 999.75 999.95 1000.71 1001.59 1002.51 1003.62 1004.72 1005.59 1006.83 1007.69 1008.57 1008.89
1010.26 1009.43 1007.83 1006.78 1006.50 1006.41 1005.91 1005.09 1005.53 1006.18 1006.67 1006.67 1006.32 1005.07 1004.50 1005.06 1005.54 1005.69 1005.82 1005.67 1005.59 1005.53 1005.73 1005.94 1005.89 1005.45 1004.72 1004.17 1003.77 1002.90 1001.64 1000.25 999.62 999.96 1000.88 1002.15 1003.15 1004.23 1005.31 1006.19 1007.45 1008.46 1009.39 1010.02
1010.42 1009.72 1008.33 1007.44 1007.35 1007.03 1006.81 1006.86 1006.91 1007.50 1007.60 1007.16 1006.65 1006.65 1006.60 1006.76 1006.84 1006.87 1006.88 1006.69 1006.57 1006.52 1006.86 1006.91 1006.55 1006.28 1005.51 1005.13 1004.75 1003.63 1001.89 1000.77 999.58 1000.04 1001.15 1002.53 1003.71 1004.73 1005.68 1006.86 1008.10 1009.31 1010.07 1011.17
1010.69 1009.87 1008.77 1008.83 1008.09 1008.01 1007.81 1007.56 1008.24 1008.10 1007.82 1007.08 1006.80 1007.16 1007.34 1007.62 1007.83 1007.89 1007.75 1007.61 1007.40 1007.52 1007.50 1007.44 1007.47 1006.87 1006.29 1005.94 1005.19 1003.73 1001.99 1001.78 1000.21 1000.52 1001.77 1002.92 1003.87 1005.40 1006.37 1007.23 1008.62 1010.00 1010.90 1012.02
1012.32 1011.02 1010.51 1010.30 1009.84 1009.19 1008.70 1008.53 1008.60 1008.62 1008.38 1008.03 1008.12 1008.28 1008.43 1008.70 1009.01 1009.07 1008.98 1008.48 1008.37 1008.29 1008.27 1008.02 1008.13 1007.81 1007.20 1006.38 1005.75 1004.85 1003.02 1002.46 1002.47 1002.22 1002.61 1003.52 1004.44 1005.73 1007.02 1007.95 1008.96 1010.47 1011.57 1012.74
1012.60 1012.27 1012.13 1011.84 1011.20 1010.64 1009.94 1010.14 1010.09 1009.77 1009.34 1009.22 1009.25 1009.48 1009.68 1010.03 1010.14 1010.13 1009.94 1009.68 1009.34 1008.85 1008.56 1008.80 1008.87 1008.57 1008.22 1007.44 1006.56 1005.36 1004.45 1004.33 1004.12 1003.95 1004.29 1005.20 1005.64 1006.52 1007.45 1008.56 1009.70 1010.71 1012.00 1013.11
1013.47 1013.24 1012.74 1012.60 1012.60 1012.42 1011.87 1011.66 1011.13 1010.60 1010.56 1010.34 1010.17 1010.41 1010.71 1011.03 1011.22 1011.16 1011.01 1010.75 1010.23 1009.71 1009.44 1009.65 1009.60 1009.19 1008.63 1008.11 1007.37 1006.48 1005.64 1005.74 1005.34 1005.28 1005.36 1007.01 1007.30 1007.95 1008.39 1009.73 1010.45 1011.61 1012.89 1013.56
1015.02 1015.11 1014.74 1014.13 1013.79 1013.34 1012.94 1012.63 1012.09 1011.49 1011.19 1011.34 1011.41 1011.55 1011.67 1011.94 1012.23 1012.35 1012.24 1011.93 1011.41 1011.00 1010.74 1010.53 1010.66 1010.37 1009.73 1008.86 1008.02 1007.68 1007.18 1007.21 1006.45 1006.83 1007.55 1007.81 1008.64 1009.59 1010.52 1011.03 1011.03 1012.94 1013.92 1015.19
1016.37 1015.58 1015.21 1014.90 1014.30 1013.97 1013.45 1013.23 1012.94 1012.59 1012.57 1012.42 1012.48 1012.60 1012.75 1013.10 1013.48 1013.44 1013.25 1013.03 1012.66 1012.36 1012.14 1011.72 1011.55 1011.41 1010.77 1010.00 1009.37 1009.05 1008.59 1008.59 1008.34 1008.80 1009.44 1010.07 1010.46 1011.14 1011.63 1013.23 1013.10 1014.79 1015.32 1017.27
1016.57 1015.80 1015.14 1015.33 1015.09 1014.67 1014.28 1013.70 1013.40 1013.45 1013.63 1013.81 1013.79 1013.80 1013.88 1013.99 1014.19 1014.28 1014.26 1014.25 1013.83 1013.57 1013.20 1012.99 1012.65 1012.27 1011.97 1011.35 1010.80 1010.50 1010.29 1010.12 1010.02 1010.86 1010.83 1011.94 1011.67 1012.24 1013.64 1013.63 1014.97 1016.61 1017.72 1018.25
1016.84 1016.77 1016.63 1016.21 1015.77 1015.36 1014.83 1014.24 1013.72 1013.90 1014.31 1014.56 1014.84 1014.92 1014.95 1014.93 1014.92 1015.08 1015.15 1014.91 1014.64 1014.32 1014.04 1013.80 1013.51 1013.16 1012.91 1012.64 1012.21 1011.91 1011.76 1011.76 1012.24 1012.63 1012.68 1013.23 1013.09 1013.62 1014.01 1015.20 1016.04 1017.85 1018.97 1019.86
1017.57 1017.29 1017.02 1016.82 1016.66 1016.34 1015.86 1015.50 1015.21 1015.04 1015.08 1015.29 1015.63 1015.81 1015.90 1015.83 1015.66 1015.66 1015.70 1015.55 1015.02 1014.86 1014.83 1014.66 1014.41 1014.23 1013.97 1013.80 1013.50 1013.38 1013.34 1013.55 1014.12 1014.26 1014.35 1014.66 1015.15 1015.50 1016.41 1017.34 1018.46 1019.54 1020.76 1021.56
1018.12 1017.88 1017.94 1017.66 1017.55 1017.35 1016.98 1016.78 1016.58 1016.35 1016.18 1016.26 1016.55 1016.66 1016.60 1016.58 1016.56 1016.61 1016.45 1016.24 1015.80 1015.58 1015.56 1015.53 1015.26 1015.10 1014.77 1014.62 1014.43 1014.40 1014.57 1014.97 1015.23 1015.67 1016.03 1016.45 1017.15 1017.72 1018.69 1019.32 1020.26 1021.11 1021.95 1022.56
1019.51 1019.38 1019.25 1018.95 1018.71 1018.34 1017.94 1017.73 1017.52 1017.42 1017.38 1017.46 1017.53 1017.53 1017.44 1017.30 1017.25 1017.29 1017.12 1016.86 1016.68 1016.59 1016.29 1016.06 1015.69 1015.58 1015.55 1015.44 1015.28 1015.34 1015.51 1015.98 1016.61 1017.01 1017.64 1018.28 1018.92 1019.60 1020.35 1021.03 1021.81 1022.48 1023.57 1024.12
1020.38 1020.24 1020.14 1019.96 1019.89 1019.59 1019.13 1018.88 1018.76 1018.55 1018.41 1018.28 1018.10 1018.08 1018.14 1018.10 1017.95 1017.78 1017.67 1017.47 1017.47 1017.29 1017.51 1017.28 1016.96 1016.76 1016.59 1016.55 1016.47 1016.79 1017.03 1017.35 1017.87 1018.48 1019.10 1019.73 1020.23 1020.96 1021.57 1022.19 1023.00 1023.68 1024.19 1024.68
1021.04 1021.09 1021.09 1021.01 1020.98 1020.91 1020.58 1020.35 1019.95 1019.48 1019.32 1019.02 1018.89 1018.69 1018.59 1018.69 1018.72 1018.57 1018.43 1018.41 1018.65 1018.63 1018.53 1018.40 1018.13 1018.05 1017.93 1017.83 1017.70 1017.89 1018.15 1018.51 1019.02 1019.75 1020.41 1020.84 1021.48 1022.18 1022.89 1023.43 1023.93 1024.49 1025.09 1025.74
1022.11 1022.06 1022.16 1022.15 1021.94 1021.86 1021.79 1021.46 1020.80 1020.43 1020.14 1019.95 1019.56 1019.52 1019.35 1019.28 1019.27 1018.95 1018.57 1018.59 1019.26 1019.33 1019.21 1019.11 1018.82 1018.72 1018.81 1018.91 1019.01 1019.04 1019.43 1019.92 1020.24 1020.65 1021.32 1021.95 1022.43 1023.01 1023.65 1024.22 1024.93 1025.56 1026.32 1026.94
1022.82 1022.97 1022.99 1022.92 1022.71 1022.48 1022.41 1022.07 1021.67 1021.31 1020.91 1020.61 1020.48 1020.26 1019.98 1019.77 1019.75 1019.75 1019.88 1019.62 1019.86 1019.93 1019.62 1019.57 1019.68 1019.79 1019.68 1019.48 1019.64 1019.94 1020.30 1020.68 1021.13 1021.67 1022.19 1022.78 1023.25 1023.85 1024.58 1025.36 1025.95 1026.62 1027.17 1027.75
1023.14 1023.27 1023.25 1023.31 1023.18 1022.95 1022.80 1022.55 1022.23 1021.92 1021.56 1021.26 1020.98 1020.65 1020.34 1020.25 1020.12 1019.83 1019.96 1020.59 1020.51 1020.67 1020.53 1020.79 1021.02 1020.79 1020.50 1020.30 1020.49 1020.79 1021.16 1021.58 1022.00 1022.48 1023.07 1023.61 1024.18 1024.80 1025.45 1026.22 1026.86 1027.37 1027.79 1028.29
1023.37 1023.45 1023.49 1023.52 1023.46 1023.04 1022.70 1022.62 1022.52 1022.27 1022.16 1021.83 1021.76 1021.62 1021.06 1020.70 1020.99 1021.19 1021.55 1021.83 1021.77 1021.57 1021.63 1021.78 1021.83 1021.68 1021.40 1021.53 1021.80 1022.12 1022.44 1022.82 1023.09 1023.50 1024.13 1024.58 1025.21 1025.78 1026.42 1026.97 1027.44 1028.16 1028.78 1029.11
1023.51 1023.52 1023.52 1023.44 1022.97 1022.72 1022.82 1022.75 1022.56 1022.40 1022.31 1022.09 1022.06 1021.92 1021.90 1021.78 1021.55 1022.00 1022.16 1022.44 1022.50 1022.33 1022.65 1023.02 1022.87 1022.65 1022.54 1022.71 1022.91 1023.14 1023.48 1023.91 1024.31 1024.64 1025.06 1025.59 1026.16 1026.81 1027.35 1027.87 1028.43 1028.96 1029.41 1029.91
1023.31 1023.22 1023.30 1023.66 1023.54 1023.16 1022.93 1022.86 1022.64 1022.65 1022.51 1022.34 1022.44 1022.43 1022.52 1022.64 1022.75 1022.78 1023.00 1023.07 1023.09 1023.14 1023.20 1023.39 1023.48 1023.52 1023.66 1023.88 1024.16 1024.47 1024.71 1025.00 1025.28 1025.71 1026.13 1026.60 1027.13 1027.62 1028.14 1028.75 1029.30 1029.68 1030.12 1030.52
1023.35 1023.70 1023.26 1023.23 1023.44 1023.50 1023.50 1023.38 1023.06 1023.00 1023.10 1022.97 1022.96 1023.07 1023.10 1023.24 1023.45 1023.48 1023.61 1023.66 1023.80 1023.93 1024.07 1024.25 1024.39 1024.49 1024.62 1024.83 1025.02 1025.38 1025.81 1026.14 1026.39 1026.65 1027.05 1027.47 1027.92 1028.47 1028.97 1029.38 1029.81 1030.34 1030.88 1031.31
Wind_Speed
15 16 14 13 16 13 12 13 12 13 14 13 15 15 16 14 14 14 14 11 8 7 9 10 12 11 10 9 11 13 10 10 11 10 11 12 12 10 8 7 6 6 6 5
15 16 14 16 16 17 17 16 17 19 18 19 14 10 12 15 14 15 13 7 7 8 10 11 12 12 11 9 11 14 10 11 12 12 12 14 13 11 10 8 7 6 6 6
14 11 13 14 17 18 20 17 15 16 19 18 15 16 16 16 15 14 8 7 8 10 10 12 12 11 12 11 12 13 11 10 12 14 13 14 13 12 10 9 8 7 8 8
11 11 13 10 8 9 12 14 14 15 18 18 18 18 19 18 14 4 4 6 8 9 11 12 13 13 13 11 12 11 12 10 12 14 12 14 13 12 9 9 9 8 8 9
8 10 13 17 8 9 12 15 14 13 14 17 19 22 18 1 5 4 6 7 9 10 12 13 13 15 14 13 13 13 14 11 12 13 12 11 11 12 11 12 9 9 8 11
9 7 5 3 5 10 8 12 9 6 10 15 14 12 7 7 8 7 9 9 11 12 11 12 13 14 13 12 11 12 12 9 13 12 11 11 12 12 9 11 12 10 12 11
12 9 6 5 9 10 10 6 10 8 12 13 10 5 7 7 8 10 9 11 12 11 10 11 13 14 12 12 10 13 12 13 10 12 13 13 11 11 12 13 13 13 14 11
3 5 3 10 5 6 12 13 13 13 10 9 4 7 8 8 10 11 11 11 12 10 10 12 13 13 12 12 14 13 12 10 4 13 11 11 16 11 13 15 15 14 14 12
7 6 16 18 15 15 12 10 4 8 11 12 11 11 10 10 10 10 11 11 11 10 10 11 13 12 12 14 12 9 8 11 12 8 11 12 15 14 11 11 12 12 11 12
12 10 17 10 12 14 11 10 8 10 11 11 10 11 10 9 10 10 10 10 10 11 12 12 12 12 11 12 11 9 10 10 8 11 12 10 9 9 10 9 10 11 12 12
4 8 11 16 13 11 11 9 9 10 12 13 11 11 9 9 10 9 10 10 10 11 11 12 12 12 12 11 9 8 9 8 10 9 14 11 10 9 11 10 10 10 9 11
4 11 8 6 10 11 10 10 12 12 12 12 11 11 9 9 9 9 10 11 10 12 11 12 11 11 12 11 10 8 9 7 10 9 9 11 11 15 28 24 31 25 22 12
6 13 4 11 10 16 14 12 12 12 12 11 11 10 10 8 9 9 10 11 11 11 10 11 11 11 12 10 9 11 10 8 9 11 9 10 12 12 16 21 34 30 31 25
11 12 4 12 9 13 13 12 10 10 10 10 10 10 9 8 8 9 10 9 10 10 10 10 10 11 10 10 10 11 12 14 10 8 10 9 11 14 11 15 17 16 24 23
13 9 7 8 10 12 12 13 11 11 10 9 9 9 9 9 9 10 9 7 8 10 11 10 10 12 10 10 11 11 10 10 10 9 10 11 11 12 13 14 15 15 14 18
8 7 9 10 11 12 13 13 12 12 11 9 8 8 7 7 8 9 9 10 11 11 11 10 11 10 9 9 12 11 12 17 13 10 10 12 11 13 12 13 12 12 11 12
8 10 10 10 10 11 10 10 10 10 10 9 8 7 6 5 7 8 9 9 10 11 10 10 10 9 10 10 10 9 10 11 15 11 11 11 11 12 11 12 11 11 11 10
7 7 8 9 10 10 11 10 10 11 10 9 7 5 6 7 7 7 7 8 9 11 12 11 10 10 11 10 10 9 9 10 10 11 11 12 12 11 12 12 12 13 11 11
8 8 9 9 10 10 10 11 11 10 9 8 6 6 6 6 6 7 7 7 8 9 11 10 11 11 11 11 10 9 10 11 11 11 12 14 12 11 11 11 12 11 11 10
9 10 10 10 10 11 11 11 11 9 8 7 5 5 6 6 6 6 8 10 10 6 7 8 9 10 10 11 10 9 10 11 11 10 10 11 11 11 11 13 11 11 10 10
8 9 10 10 9 9 8 9 9 9 8 7 5 5 5 5 6 5 4 6 8 8 8 10 8 6 7 8 8 8 9 9 10 10 10 10 11 11 10 11 10 10 10 9
5 5 6 7 8 8 9 9 9 7 7 6 5 4 3 5 5 7 8 7 5 7 6 7 7 9 7 8 7 8 9 10 9 9 9 9 9 10 10 10 10 9 9 9
4 5 6 6 7 7 6 7 7 8 7 6 5 5 5 5 5 4 4 7 6 7 7 7 8 9 9 7 8 8 9 9 9 9 9 9 9 9 9 9 9 9 8 8
3 4 5 5 5 5 7 7 7 6 5 4 5 5 5 3 5 5 6 7 9 9 8 7 8 9 9 7 8 8 8 9 9 9 10 11 9 9 9 8 8 8 8 8
2 3 3 5 5 5 5 5 4 3 3 4 4 4 5 5 4 4 5 6 7 7 8 10 10 10 8 8 8 9 9 8 8 9 9 9 9 8 8 8 8 7 7 7
3 4 4 4 5 5 5 5 4 3 3 2 4 4 4 5 5 5 6 7 6 7 7 6 6 7 8 9 9 9 9 9 9 8 9 8 8 8 8 8 7 7 6 6
1 3 3 3 3 4 5 5 4 3 2 3 4 4 4 5 5 5 6 6 6 7 7 6 7 8 8 8 9 9 8 8 9 8 8 7 7 7 7 7 6 6 5 5
Wind_Direction
282 289 288 256 281 279 263 270 267 271 285 296 292 314 317 310 307 308 303 284 285 310 316 335 344 344 349 343 336 307 197 198 205 197 195 187 174 154 154 160 164 170 170 165
276 274 279 278 272 267 268 270 271 272 280 273 300 310 300 303 306 306 299 301 320 331 329 330 332 338 333 343 330 315 216 201 207 190 193 186 168 154 156 151 145 141 120 98
285 286 287 273 264 261 267 266 266 271 275 301 302 295 297 295 295 290 320 322 328 332 338 329 330 339 326 336 313 300 285 200 198 189 186 185 168 158 148 128 112 83 76 81
280 276 251 273 290 281 286 285 276 265 274 285 294 305 300 284 273 295 310 339 347 344 341 336 334 340 329 332 309 300 288 208 187 186 185 186 170 146 118 110 108 98 86 88
255 266 282 289 293 282 261 274 282 278 296 312 315 299 270 267 48 45 19 2 355 352 344 341 344 342 327 337 329 321 276 207 187 177 173 174 138 131 123 112 100 96 94 100
244 263 260 254 349 340 311 272 42 352 309 313 307 282 67 57 37 34 17 9 355 357 346 351 347 341 337 344 331 318 326 296 183 175 154 141 129 124 109 106 106 102 91 88
232 241 264 329 327 290 256 1 345 353 320 288 277 18 42 40 34 31 17 8 4 2 353 357 355 343 350 344 336 321 315 314 194 149 133 129 120 122 118 111 105 99 96 87
234 242 260 14 322 323 341 317 1 319 299 295 93 77 48 26 26 18 12 8 12 1 360 6 1 353 350 345 338 332 351 349 48 123 124 127 122 118 117 116 109 105 101 92
320 317 356 344 317 300 296 305 347 344 12 19 39 34 27 32 23 19 11 10 6 3 360 10 6 1 350 345 334 353 21 39 31 66 106 118 124 123 117 117 118 116 112 108
303 26 346 357 359 14 13 49 32 27 30 30 37 30 39 31 22 18 12 8 360 2 10 7 0 1 353 346 347 2 37 31 66 59 75 87 97 104 113 118 119 121 122 120
325 347 342 23 12 3 9 21 26 45 41 33 31 38 36 32 23 15 12 6 9 10 8 7 0 359 356 352 4 23 36 57 53 66 78 63 69 84 92 81 97 112 111 119
341 336 315 336 358 7 10 9 16 27 35 36 28 31 30 36 30 21 11 9 13 16 9 9 8 1 1 4 18 27 50 41 63 61 67 89 83 83 79 96 98 94 93 99
324 316 316 351 19 9 3 12 15 32 30 22 26 23 26 38 31 28 22 15 17 18 10 11 15 13 4 12 39 50 55 61 69 71 70 85 102 96 100 86 91 97 101 107
350 344 358 6 351 357 2 3 17 29 33 29 19 22 23 28 32 28 27 18 21 24 26 23 22 25 15 20 37 55 62 59 70 74 90 94 92 97 101 98 100 97 91 101
350 12 354 346 358 360 360 3 6 20 18 24 30 25 21 23 30 31 26 16 37 42 38 33 34 33 36 45 49 51 64 66 65 72 77 83 89 93 94 94 98 96 98 92
338 8 360 4 355 356 359 1 358 360 6 15 24 26 30 32 39 37 34 33 33 35 35 37 38 34 43 61 75 71 68 76 81 78 79 80 80 85 86 90 89 93 94 95
3 2 354 354 354 352 353 355 353 354 356 9 16 18 27 46 59 46 40 39 40 36 31 39 45 42 51 62 73 82 87 79 85 77 76 79 81 83 87 90 90 89 83 82
6 2 352 346 347 344 346 352 355 358 1 358 8 30 54 52 52 50 41 46 52 43 33 31 40 53 55 58 66 73 78 83 84 90 91 89 90 90 90 94 98 100 99 92
17 10 5 5 359 349 349 353 354 352 358 358 11 35 50 56 54 52 45 45 49 50 35 35 43 54 60 59 76 79 83 88 89 90 95 98 94 94 97 99 102 105 105 101
24 20 13 7 8 3 352 352 343 354 358 359 4 30 45 48 52 67 70 61 45 42 46 49 63 63 66 61 71 80 86 91 94 94 97 100 98 97 99 102 107 103 101 101
13 12 10 2 357 359 358 346 347 351 355 2 4 38 40 40 33 355 54 64 42 38 51 55 51 66 71 81 81 83 89 95 98 98 97 102 107 104 103 101 103 102 102 102
10 2 355 352 349 349 357 353 356 353 359 14 34 43 60 69 67 63 40 33 51 30 48 50 52 50 70 80 86 94 99 101 101 104 104 105 106 107 107 108 108 109 108 107
1 351 354 355 348 345 344 2 358 4 1 12 15 21 25 32 16 6 60 41 44 44 60 59 66 69 73 76 82 88 91 96 98 100 104 106 108 110 111 113 113 112 112 110
341 344 346 349 336 349 356 9 352 10 6 17 38 10 353 62 70 63 84 74 62 58 54 57 67 74 81 86 88 90 93 95 95 94 96 99 99 102 106 110 107 103 106 106
318 320 334 329 327 355 334 354 319 352 357 38 36 44 29 28 37 68 75 78 65 77 80 73 75 80 82 86 91 95 95 95 100 103 102 102 104 107 107 108 114 116 113 114
332 354 354 354 343 337 341 338 347 359 349 39 52 47 64 72 84 85 78 78 77 76 72 69 71 81 86 89 91 95 101 106 101 96 103 104 107 108 108 110 117 116 115 113
257 307 332 332 4 351 355 351 333 15 17 36 73 67 75 80 79 86 86 86 83 81 80 76 73 73 85 87 90 89 86 86 87 96 98 101 103 105 109 111 109 107 109 118